Roseburg, OR

9:32 AM PST on December 11, 2019 (GMT -0800)
Roseburg Regional

Weather History for KRBG - November, 2019

Change the Weather History Date:

Tuesday, November 12, 2019

  Actual Average Record
Temperature  
Mean Temperature 52 °F 48 °F  
Max Temperature 60 °F 55 °F 73 °F (1999)
Min Temperature 44 °F 41 °F 24 °F (1936)
Degree Days  
Heating Degree Days 13 17  
Month to date heating degree days 196 190  
Since 1 July heating degree days 652 576  
Cooling Degree Days 0 0  
Month to date cooling degree days 0 0  
Year to date cooling degree days 680 480  
Growing Degree Days 2 (Base 50)    
Moisture  
Dew Point 45 °F    
Average Humidity 84    
Maximum Humidity 100    
Minimum Humidity 67    
Precipitation  
Precipitation 0.00 in 0.21 in 1.29 in (1984)
Month to date precipitation 0.00 2.17  
Year to date precipitation 26.11 25.45  
Sea Level Pressure  
Sea Level Pressure 30.13 in    
Wind  
Wind Speed 1 mph (WSW)    
Max Wind Speed 6 mph    
Max Gust Speed 8 mph    
Visibility 4 miles    
Events Fog    
T = Trace of Precipitation, MM = Missing Value Source: NWS Daily Summary

Daily Weather History Graph

Daily Weather History Graph

Search for Another Location

Airport or City:

Astronomy

Nov. 12, 2019 Rise Set
Actual Time 7:02 AM PST 4:52 PM PST
Civil Twilight 6:31 AM PST 5:22 PM PST
Nautical Twilight 5:57 AM PST 5:56 PM PST
Astronomical Twilight 5:24 AM PST 6:30 PM PST
Moon 5:22 PM PST (11/12) 6:58 AM PST (11/12)
Length of Visible Light 10h 50m
Length of Day
9h 49m
Full, 100% of the Moon is Illuminated
Nov 12
Full
Nov 19
Last Quarter
Nov 26
New
Dec 3
First Quarter
Dec 11
Full

Hourly Weather History & Observations

Time (PST) Temp. Windchill Dew Point Humidity Pressure Visibility Wind Dir Wind Speed Gust Speed Precip Events Conditions
12:04 AM 46.0 °F - 44.1 °F 93% 30.12 in 0.2 mi Calm Calm - N/A Fog Fog
12:21 AM 46.0 °F - 44.1 °F 93% 30.12 in 0.2 mi Calm Calm - N/A Fog Fog
12:53 AM 45.0 °F - 43.0 °F 93% 30.12 in 0.2 mi Calm Calm - N/A Fog Fog
1:17 AM 45.0 °F - 44.1 °F 97% 30.11 in 0.2 mi Calm Calm - N/A Fog Fog
1:51 AM 46.4 °F - 44.6 °F 93% 30.10 in 0.2 mi Calm Calm - N/A Fog Fog
1:53 AM 46.0 °F - 44.1 °F 93% 30.10 in 0.2 mi Calm Calm - N/A Fog Fog
2:53 AM 46.0 °F - 44.1 °F 93% 30.12 in 0.2 mi Calm Calm - N/A Fog Fog
3:53 AM 46.0 °F - 45.0 °F 96% 30.12 in 0.2 mi Calm Calm - N/A Fog Fog
4:22 AM 46.0 °F - 44.1 °F 93% 30.10 in 0.5 mi Calm Calm - N/A Fog Fog
4:53 AM 46.0 °F 44.8 °F 44.1 °F 93% 30.12 in 0.5 mi WSW 3.5 mph - N/A Fog Fog
5:53 AM 45.0 °F - 44.1 °F 97% 30.12 in 0.8 mi Calm Calm - N/A   Mist
6:00 AM 46.0 °F - 44.1 °F 93% 30.11 in 1.0 mi Calm Calm - N/A   Mist
6:18 AM 46.0 °F - 44.1 °F 93% 30.11 in 0.8 mi Calm Calm - N/A   Mist
6:28 AM 46.0 °F 44.8 °F 44.1 °F 93% 30.10 in 1.0 mi ESE 3.5 mph - N/A   Mist
6:35 AM 46.0 °F - 44.1 °F 93% 30.11 in 0.8 mi Calm Calm - N/A   Mist
6:43 AM 46.0 °F - 44.1 °F 93% 30.12 in 1.5 mi Calm Calm - N/A   Overcast
6:53 AM 46.0 °F 44.8 °F 44.1 °F 93% 30.12 in 1.5 mi SW 3.5 mph - N/A   Overcast
7:10 AM 46.0 °F - 44.1 °F 93% 30.13 in 0.5 mi Calm Calm - N/A Fog Fog
7:53 AM 46.0 °F - 44.1 °F 93% 30.15 in 0.2 mi Calm Calm - N/A Fog Fog
8:53 AM 46.9 °F - 45.0 °F 93% 30.17 in 0.2 mi Calm Calm - N/A Fog Fog
9:00 AM 46.9 °F - 45.0 °F 93% 30.17 in 0.5 mi Calm Calm - N/A Fog Fog
9:25 AM 46.9 °F - 45.0 °F 93% 30.16 in 1.0 mi Calm Calm - N/A   Overcast
9:33 AM 46.9 °F - 46.0 °F 97% 30.17 in 0.8 mi Calm Calm - N/A   Overcast
9:39 AM 46.9 °F - 46.0 °F 97% 30.16 in 1.0 mi Calm Calm - N/A   Overcast
9:53 AM 46.9 °F - 46.0 °F 97% 30.17 in 1.8 mi Calm Calm - N/A   Overcast
9:59 AM 46.9 °F - 46.0 °F 97% 30.17 in 3.0 mi Calm Calm - N/A   Overcast
10:53 AM 48.9 °F - 46.0 °F 90% 30.16 in 7.0 mi Calm Calm - N/A   Overcast
11:53 AM 51.1 °F - 46.9 °F 86% 30.17 in 7.0 mi Calm Calm - N/A   Overcast
12:53 PM 52.0 °F - 48.0 °F 86% 30.14 in 9.0 mi Calm Calm - N/A   Partly Cloudy
1:53 PM 55.0 °F - 48.0 °F 77% 30.14 in 10.0 mi Calm Calm - N/A   Clear
2:53 PM 59.0 °F - 48.9 °F 69% 30.13 in 10.0 mi Calm Calm - N/A   Clear
3:53 PM 60.1 °F - 50.0 °F 69% 30.13 in 10.0 mi NW 4.6 mph - N/A   Clear
4:53 PM 57.0 °F - 48.9 °F 74% 30.13 in 10.0 mi West 3.5 mph - N/A   Clear
5:53 PM 54.0 °F - 48.0 °F 80% 30.13 in 10.0 mi Calm Calm - N/A   Clear
6:53 PM 51.1 °F - 46.0 °F 83% 30.13 in 10.0 mi Calm Calm - N/A   Clear
7:53 PM 48.9 °F - 45.0 °F 86% 30.13 in 10.0 mi Calm Calm - N/A   Clear
8:53 PM 48.0 °F - 44.1 °F 86% 30.13 in 10.0 mi Calm Calm - N/A   Clear
9:53 PM 46.0 °F - 43.0 °F 89% 30.13 in 9.0 mi Calm Calm - N/A   Clear
10:53 PM 46.0 °F - 42.1 °F 86% 30.13 in 10.0 mi Calm Calm - N/A   Clear
11:15 PM 45.0 °F - 42.1 °F 90% 30.12 in 9.0 mi Calm Calm - N/A   Scattered Clouds
11:33 PM 44.1 °F - 41.0 °F 89% 30.12 in 8.0 mi Calm Calm - N/A   Mostly Cloudy
11:43 PM 45.0 °F - 42.1 °F 90% 30.11 in 5.0 mi Calm Calm - N/A   Overcast
11:57 PM 45.0 °F - 43.0 °F 93% 30.11 in 1.8 mi Calm Calm - N/A   Overcast